FW9572 Weather Reports


time (UTC)temp
F
wind
direction
speed
knots
gust
knots
rain 1hr
in
rain 24hr
in
rain mn
in
humidity
%
barometer
mb
20260906210040 91 360 0.0 0.9 0.00 0.00 0.00 40 1003.0
20260906204521 90 360 0.0 0.9 0.00 0.00 0.00 42 1003.3
20260906203027 90 360 0.0 0.9 0.00 0.00 0.00 40 1003.5
20260906201535 89 360 0.0 0.9 0.00 0.00 0.00 43 1003.6
20260906200017 89 360 0.0 0.9 0.00 0.00 0.00 42 1003.7
20260906194516 90 360 0.0 0.9 0.00 0.00 0.00 42 1003.9
20260906193022 90 360 0.0 0.0 0.00 0.00 0.00 41 1004.0
20260906191513 91 360 0.0 0.9 0.00 0.00 0.00 40 1004.2
20260906190010 90 360 0.0 0.0 0.00 0.00 0.00 40 1004.4
20260906184507 90 360 0.0 0.0 0.00 0.00 0.00 43 1004.6
20260906183004 89 360 0.0 0.0 0.00 0.00 0.00 42 1004.9
20260906181600 88 360 0.0 7.8 0.00 0.00 0.00 41 1005.1
20260906180117 88 360 0.0 0.0 0.00 0.00 0.00 42 1005.5
20260906174559 87 215 0.0 0.0 0.00 0.00 0.00 42 1005.7
20260906173056 86 161 0.0 0.0 0.00 0.00 0.00 44 1006.0
20260906171544 85 360 0.0 1.7 0.00 0.00 0.00 46 1006.3
20260906170040 84 360 0.0 0.0 0.00 0.00 0.00 48 1006.4
20260906164536 82 360 0.0 0.0 0.00 0.00 0.00 51 1006.6
20260906163033 81 360 0.0 0.0 0.00 0.00 0.00 51 1006.8
20260906161529 80 360 0.0 0.0 0.00 0.00 0.00 53 1007.1
20260906160025 78 360 0.0 0.0 0.00 0.00 0.00 55 1007.0
20260906154527 76 360 0.0 0.0 0.00 0.00 0.00 61 1007.1
20260906153031 74 360 0.0 0.0 0.00 0.00 0.00 63 1007.1
20260906151513 73 360 0.0 0.0 0.00 0.00 0.00 68 1007.3
20260906150015 71 360 0.0 0.0 0.00 0.00 0.00 70 1007.6
20260906144504 70 360 0.0 0.0 0.00 0.00 0.00 71 1007.7
20260906143100 68 360 0.0 0.0 0.00 0.00 0.00 74 1007.8
20260906141555 65 360 0.0 0.0 0.00 0.00 0.00 81 1007.9
20260906140050 63 176 0.0 0.0 0.00 0.00 0.00 87 1008.0
20260906134610 62 360 0.0 0.0 0.00 0.00 0.00 90 1008.2
20260906133052 60 360 0.0 0.9 0.00 0.00 0.00 89 1008.1
20260906131543 60 360 0.0 0.0 0.00 0.00 0.00 88 1008.1
20260906130042 60 360 0.0 0.0 0.00 0.00 0.00 87 1008.1
20260906124540 60 360 0.0 0.0 0.00 0.00 0.00 86 1008.1
20260906123051 61 212 0.0 0.0 0.00 0.00 0.00 86 1008.2
20260906121538 61 360 0.0 0.0 0.00 0.00 0.00 86 1007.9
20260906120032 61 179 0.0 0.0 0.00 0.00 0.00 87 1007.7
20260906114530 62 360 0.0 0.0 0.00 0.00 0.00 85 1007.6
20260906113032 62 360 0.0 0.0 0.00 0.00 0.00 85 1007.6
20260906111528 62 360 0.0 0.0 0.00 0.00 0.00 84 1007.5
20260906110024 63 360 0.0 0.0 0.00 0.00 0.00 84 1007.2
20260906104522 63 360 0.0 0.0 0.00 0.00 0.00 84 1007.1
20260906103020 63 178 0.0 0.0 0.00 0.00 0.00 83 1007.1
20260906101527 64 360 0.0 0.0 0.00 0.00 0.00 82 1007.0
20260906100020 64 360 0.0 0.0 0.00 0.00 0.00 82 1007.1
20260906094516 64 360 0.0 0.0 0.00 0.00 0.00 81 1006.9
20260906093025 64 360 0.0 0.0 0.00 0.00 0.00 81 1006.8
20260906091515 64 360 0.0 0.0 0.00 0.00 0.00 81 1006.7
20260906090032 64 360 0.0 0.0 0.00 0.00 0.00 81 1006.6
20260906084512 65 360 0.0 0.0 0.00 0.00 0.00 81 1006.3
20260906083008 65 360 0.0 0.0 0.00 0.00 0.00 79 1005.9
20260906081508 66 360 0.0 0.0 0.00 0.00 0.00 79 1006.0
20260906080002 66 360 0.0 0.0 0.00 0.00 0.00 78 1006.2
20260906074610 67 360 0.0 0.0 0.00 0.00 0.00 78 1006.3
20260906073111 67 360 0.0 0.0 0.00 0.00 0.00 78 1006.6
20260906071557 67 360 0.0 0.0 0.00 0.00 0.00 77 1006.7
20260906070056 67 360 0.0 0.0 0.00 0.00 0.00 77 1006.5
20260906064555 67 360 0.0 0.0 0.00 0.00 0.00 76 1006.8
20260906063053 68 360 0.0 0.0 0.00 0.00 0.00 75 1006.6
20260906061552 68 360 0.0 0.0 0.00 0.00 0.00 75 1006.8
20260906060050 68 360 0.0 0.0 0.00 0.00 0.00 75 1006.4
20260906054549 68 360 0.0 0.0 0.00 0.00 0.00 75 1006.3
20260906053048 69 360 0.0 0.0 0.00 0.00 0.00 74 1005.9
20260906051558 70 360 0.0 0.0 0.00 0.00 0.00 72 1005.8
20260906050101 71 360 0.0 1.7 0.00 0.00 0.00 70 1005.7
20260906044551 71 360 0.0 0.0 0.00 0.00 0.00 69 1005.3
20260906043147 71 360 0.0 0.0 0.00 0.00 0.00 70 1005.7
20260906041545 71 360 0.0 0.0 0.00 0.00 0.00 67 1005.9
20260906040045 70 360 0.0 0.0 0.00 0.00 0.00 70 1006.1
20260906034606 68 360 0.0 0.0 0.00 0.00 0.00 79 1006.1
20260906033045 68 360 0.0 0.0 0.00 0.00 0.00 81 1006.3
20260906031548 68 360 0.0 0.0 0.00 0.00 0.00 81 1006.0
20260906030043 68 360 0.0 0.0 0.00 0.00 0.00 80 1005.6
20260906024542 69 360 0.0 0.9 0.00 0.00 0.00 80 1005.4
20260906023041 69 360 0.0 0.0 0.00 0.00 0.00 79 1005.4
20260906021540 70 360 0.0 0.9 0.00 0.00 0.00 76 1005.5
20260906020039 71 360 0.0 1.7 0.00 0.00 0.00 69 1006.0
20260906014539 72 360 0.0 0.9 0.00 0.00 0.00 66 1005.8
20260906013055 73 360 0.0 1.7 0.00 0.00 0.00 66 1005.5
20260906011544 75 360 0.0 0.9 0.00 0.00 0.00 66 1005.2
20260906010033 77 360 0.0 12.2 0.00 0.00 0.00 61 1004.2
20260906004533 78 360 0.0 13.0 0.00 0.00 0.00 59 1004.2
20260906003036 80 360 0.0 0.0 0.00 0.00 0.00 57 1004.1
20260906001532 81 360 0.0 0.0 0.00 0.00 0.00 55 1004.1
20260906000032 84 360 0.0 16.5 0.00 0.00 0.00 50 1003.9
20260905234530 89 360 0.0 0.0 0.00 0.00 0.00 43 1002.7
20260905233038 94 360 0.0 0.0 0.00 0.00 0.00 38 1001.6
20260905231530 95 360 0.0 0.0 0.00 0.00 0.00 35 1001.6
20260905230027 98 360 0.0 0.0 0.00 0.00 0.00 25 1001.7
20260905224526 98 360 0.0 0.0 0.00 0.00 0.00 26 1001.4
20260905223024 98 360 0.0 0.0 0.00 0.00 0.00 24 1001.4
20260905221521 99 360 0.0 0.0 0.00 0.00 0.00 24 1001.8
20260905220019 98 360 0.0 0.0 0.00 0.00 0.00 25 1001.9
20260905214517 97 360 0.0 0.0 0.00 0.00 0.00 26 1002.1
20260905213017 97 153 0.0 0.0 0.00 0.00 0.00 26 1002.4
20260905211515 96 360 0.0 0.0 0.00 0.00 0.00 27 1002.6